Vancouver Int'l Airport, British Columbia

Past 24 Hour Conditions

This table is a summary of hourly weather conditions for the past 24 hours. This summary includes the following parameters: temperature, humidity, dew point, wind speed and direction, air pressure, visibility and/or wind chill and humidex.
Date / Time
(PDT)
Conditions Temp (°C) Humidity (%) Dew Point (°C) Wind (km/h) Pressure (kPa) Visibility (km)
30 August 2014
21:00 Mostly Cloudy 16 86 14 S 5 101.3 24
20:00 Mostly Cloudy 17 82 14 SSW 4 101.2 32
19:00 Mostly Cloudy 18 77 14 SSW 9 101.2 32
18:00 Mostly Cloudy 18 75 14 SW 8 101.2 24
17:00 Mostly Cloudy 18 75 14 WSW 5 101.2 32
16:00 Mostly Cloudy 18 82 15 SSW 11 101.2 24
15:00 Light Rainshower 18 76 14 SSW 16 101.2 24
14:00 Light Rainshower 18 78 14 S 16 101.2 24
13:00 Mostly Cloudy 18 76 14 SSW 16 101.3 24
12:00 Mostly Cloudy 19   71 14 S 15 101.3 24
11:00 Mostly Cloudy 19   70 14 ESE 14 101.3 32
10:00 Mostly Cloudy 18 75 14 ESE 16 101.3 32
9:00 Mostly Cloudy 16 82 13 ENE 16 101.2 32
8:00 Mostly Cloudy 15 89 13 E 14 101.2 32
7:00 Mostly Cloudy 14   91 12 E 14 101.2 32
6:00 Partly Cloudy 14   89 12 E 15 101.2 32
5:00 Partly Cloudy 15 88 13 E 14 101.3 24
4:00 Mostly Cloudy 14   91 12 E 10 101.3 24
3:00 Mostly Cloudy 15 87 13 E 13 101.3 24
2:00 Mostly Cloudy 15 85 13 E 11 101.3 32
1:00 Mostly Cloudy 14   88 12 E 14 101.3 24
00:00 Mostly Cloudy 15 84 13 E 11 101.3 32
29 August 2014
23:00 Mostly Cloudy 16 80 12 ENE 12 101.4 24
22:00 Mostly Cloudy 17 78 13 ENE 14 101.4 24
21:00 Mostly Cloudy 17 80 13 ENE 12 101.4 24
N/A
Not available
 ↑ 
Highest temperature
 ↓ 
Lowest temperature

If you require additional historical weather information, please visit Climate Data Online.